DMSP 5D-2 F13 DEB, 42261

Orbit data source: Space-Track

DMSP 5D-2 F13 DEB, 42261 is space debris in SSO originally from a launch on Fri, 24 Mar 1995 UTC launched from the Air Force Western Test Range (AFWTR). Debris objects in space refer to the collection of defunct objects orbiting the Earth. Examples of debris include non-operational satellites, rocket bodies, and fragments generated from explosions, collisions, or faulty payload assembly.

Loading next visibility...
Identifier
42261, 1995-015GB
Orbit
SSO
Country
Flag of USUS
Related business
Manufacturer
Unknown
Mission
Spacecraft
Bus & Motor
Unknown
Mass
Unknown
Launch date (UTC)
1995-03-24 (31 years ago)
Launch vehicle
Unknown
Launch site
Air Force Western Test Range (AFWTR)
Object type
Payload
Rocket body
Debris
Shape & HBR
Unknown shape, 0.1 m
Radar Cross Section
Small (<0.1 m²)

Expand to show TLE details & history
Last TLE update: 4 days ago

TLE from 4 days ago
0 DMSP 5D-2 F13 DEB
1 42261U 95015GB  26096.82818306  .00000891  00000-0  28796-3 0  9997
2 42261  98.3199 134.2277 0084250 202.6090 157.1378 14.39473240555778
Epoch: 2026-04-06T19:52Z
TLE epoch observation values (Epoch: 2026-04-06T19:52:35.016Z)
Latitude
-0.00005°
Longitude
0.96815°
Altitude
818.696 km
Speed
7.415 km/s
True Right ascension
08h 56m 54s
True Declination
0° 00' 00"
Sunlit
Object was in full shadow at epoch
Visualization orbit readout
Latitude
Unknown
Longitude
Unknown
Altitude
Unknown
Speed
Unknown
Apparent Right ascension
Unknown
Apparent Declination
Unknown
Sunlit
N/A
Visualization observer readout
Local Sidereal Time
02:35:24
Azimuth
Unknown
Elevation
Unknown
Doppler factor
Unknown
Orbital elements
Apogee altitude
817.47 km
Perigee altitude
697.237 km
Semi-major axis
7,135.49 km
Eccentricity
0.00843
Inclination
98.3199°
RAAN
134.2277°
Arg. of periapsis
202.609°
True anomaly
157.50928°
Mean anomaly
157.1378°
Eccentric anomaly
157.3239°
Mean motion
3.60087 °/min
Orbital period
99.98 mins
BSTAR
0.00028796
Loading maneuver chart data...
Computing Atmospheric mass density...

Documentation

Showing up to 5 results
|